Regional Weather Roundup
Issued by NWS

Home | Current Version | Previous Version | Text Only | Print | Product List | Glossary On
Versions: 1 2 3 4 5 6 7 8 9 10 11 12 13 14 15 16 17 18 19 20 21 22 23 24 25 26 27 28 29 30 31 32 33 34 35 36 37 38 39 40 41 42 43 44 45 46 47 48 49 50
000
ASUS43 KLMK 271610
RWRKY
KENTUCKY REGIONAL WEATHER ROUNDUP
NATIONAL WEATHER SERVICE LOUISVILLE KY
1200 PM EDT TUE SEP 27 2016

NOTE "FAIR" INDICATES FEW OR NO CLOUDS BELOW 12,000 FEET
WITH NO SIGNIFICANT WEATHER AND/OR OBSTRUCTIONS TO VISIBILITY.

KYZ001>023-026-027-061>063-070>075-271700-
WESTERN AND SOUTH CENTRAL KENTUCKY

CITY           SKY/WX    TMP DP  RH WIND       PRES   REMARKS
PADUCAH        SUNNY     73  46  38 NW7       30.04F
HENDERSON      SUNNY     73  45  35 W10       30.01F
OWENSBORO      SUNNY    N/A N/A N/A W9        30.04F
HOPKINSVILLE   SUNNY     70  44  39 W1        30.04F
BOWLING GREEN  SUNNY     69  45  41 CALM      30.05F
GLASGOW        SUNNY     66  56  70 W3        30.04F
$$

KYZ024-025-028>034-038-045-046-053-271700-
NORTH CENTRAL KENTUCKY

CITY           SKY/WX    TMP DP  RH WIND       PRES   REMARKS
LOUISVILLE/SDF MOSUNNY   72  47  40 W6        30.01F
LOUISVILLE/LOU SUNNY     69  47  45 SW9       30.01F
FORT KNOX      SUNNY     70  48  46 SW7       30.01F
$$

KYZ035>037-039>044-047>052-055>060-089>105-271700-
NORTHEAST KENTUCKY

CITY           SKY/WX    TMP DP  RH WIND       PRES   REMARKS
LEXINGTON      SUNNY     70  44  39 VRB6      30.02F
COVINGTON      SUNNY     68  48  48 SW8G16    29.98F
FRANKFORT      SUNNY     70  43  37 SW7       30.01F
$$

KYZ054-064>069-076>088-106>120-271700-
SOUTHEAST KENTUCKY

CITY           SKY/WX    TMP DP  RH WIND       PRES   REMARKS
JACKSON        SUNNY     66  50  56 VRB3      30.04F
LONDON         SUNNY     69  43  38 CALM      30.04F
SOMERSET       SUNNY     64  50  59 CALM      30.06F
MIDDLESBORO    SUNNY     70  46  42 CALM      30.02F
MONTICELLO     SUNNY     67  46  47 N14       30.06F
$$




USA.gov is the U.S. government's official web portal to all federal, state and local government web resources and services.